Regional Weather Roundup
Issued by NWS Wakefield, VA

Home | Current Version | Previous Version | Graphics & Text | Print | Product List | Glossary On
Versions: 1 2 3 4 5 6 7 8 9 10 11 12 13 14 15 16 17 18 19 20 21 22 23 24 25 26 27 28 29 30 31 32 33 34 35 36 37 38 39 40 41 42 43 44
000
ASUS41 KAKQ 250810
RWRAKQ

REGIONAL WEATHER ROUNDUP
NATIONAL WEATHER SERVICE WAKEFIELD VA
300 AM EST THU DEC 25 2014

Note: "fair" indicates few or no clouds below 12,000 feet with no
significant weather and/or obstructions to visibility. * = Denotes
station may not report precipitation (e.g., rain,snow,etc.),
thunder or fog.

VAZ042-051-052>054-056-250900-
NORTHERN VIRGINIA

CITY           SKY/WX    TMP DP  RH WIND       PRES   REMARKS
WASH NATIONAL  LGT RAIN  58  50  75 NW10      29.67R
DULLES         LGT RAIN  52  46  80 N7        29.65S
FORT BELVOIR   LGT RAIN  57  57 100 VRB1      29.66R
QUANTICO       LGT RAIN  59  55  87 W8        29.66R
FREDERICKSBRG* LGT RAIN  59  58  98 S3        29.64R
STAFFORD*      RAIN      58  58 100 CALM      29.68R
WARRENTON      RAIN      56  56 100 CALM      29.63S
CULPEPER*      LGT RAIN  55  54  94 CALM      29.64R
MANASSAS*      CLOUDY    55  55 100 NE6       29.64F
LEESBURG*      LGT RAIN  52  48  87 NW9       29.67R
WINCHESTER     DRIZZLE   50  36  57 W12G22    29.68R
FRONT ROYAL*   CLOUDY    52  43  71 W6        29.65R
LURAY*         CLOUDY    52  43  71 W8        29.67R
$$

VAZ048-049-060>072-079>083-250900-
CENTRAL AND SOUTH CENTRAL VIRGINIA

CITY           SKY/WX    TMP DP  RH WIND       PRES   REMARKS
RICHMOND       LGT RAIN  63  56  78 W12G20    29.67R
CHESTERFIELD*  CLOUDY    61  48  63 W6        29.69R
PETERSBURG*    LGT RAIN  61  58  90 SW8       29.70R
HANOVER        LGT RAIN  60  56  86 SW7       29.68R
TAPPAHANNOCK*  CLOUDY    64  57  78 SW10G22   29.67R
QUINTON*       CLOUDY    63  58  82 W10G17    29.67R
CHARLOTTSVILLE CLOUDY    56  45  66 VRB6      29.64R
GORDONSVILLE*  CLOUDY    53  51  95 CALM      29.61F
ORANGE*        CLOUDY    55  52  88 CALM      29.65F
LOUISA*        LGT RAIN  55  54  94 S5        29.63F
BUMPASS*       CLOUDY    56  55  96 SW3       29.65F
FARMVILLE*     CLOUDY    56  56 100 SW3       29.62F
CREWE*         CLOUDY    57  55  91 CALM      29.66F
FORT PICKETT*  CLOUDY    57  55  95 SW6       29.69S
CHASE CITY*    CLOUDY    57  57 100 CALM      29.67S
CLARKSVILLE*   CLOUDY    55  55 100 CALM      29.66F
SOUTH HILL*    CLOUDY    58  57  94 SW6       29.76R
LAWRENCEVILLE* CLOUDY    60  58  94 SW8       29.70R
EMPORIA*       LGT RAIN  63  61  94 SW10G18   29.73R
$$

VAZ088>098-250900-
SOUTHEAST VIRGINIA

CITY           SKY/WX    TMP DP  RH WIND       PRES   REMARKS
NORFOLK        CLOUDY    66  62  87 SW17      29.67S
VIRGINIA BEACH CLOUDY    68  64  87 SW15      29.67F
NORFOLK NAVAL  CLOUDY    68  61  78 SW9       29.70R
WEST POINT*    CLOUDY    66  61  83 SW18      29.68R
SALUDA*        CLOUDY    65  61  88 SW7G16    29.66R
NEWPORT NEWS   CLOUDY    67  61  81 SW10      29.68R
LANGLEY AFB    CLOUDY    65  62  89 SW8       29.68R
FORT EUSTIS    NOT AVBL
WILLIAMSBURG*  CLOUDY    66  64  94 SW8       29.69R
HR EXEC AP*    CLOUDY    64  63  94 SW8       29.72R
FRANKLIN*      CLOUDY    64  63  94 SW8       29.69R
WAKEFIELD      LGT RAIN  66  61  84 SW8       29.69R
$$

VAZ020-022-025-037-045-250900-
WEST CENTRAL AND SOUTHWEST VIRGINIA

CITY           SKY/WX    TMP DP  RH WIND       PRES   REMARKS
STAUNTON*      CLOUDY    50  40  67 W10G17    29.69R
WAYNESBORO*    CLOUDY    49  43  81 W8        29.68R
HOT SPRINGS VA CLOUDY    36  36 100 W21G31    29.67R FOG     WCI  25
LYNCHBURG      CLOUDY    50  43  77 W9G20     29.71R
DANVILLE       CLOUDY    54  52  93 W10       29.70R
SOUTH BOSTON*  CLOUDY    54  53  95 CALM      29.69R
MARTINSVILLE   CLOUDY    49  45  85 NW9       29.76R
ROANOKE        CLOUDY    48  36  63 W17G24    29.76R
BLACKSBURG     CLOUDY    41  36  81 W10G21    29.78S
DUBLIN*        CLOUDY    43  38  82 W12       29.79R
MARION*        CLOUDY    40  37  87 W14       29.82R
HILLSVILLE*    CLOUDY    39  35  86 NW10G22   29.78R
RICHLANDS*     CLOUDY    38  35  90 W8        29.80R
WISE*          LGT RAIN  37  37 100 W6        29.83R
ABINGDON*      CLOUDY    42  37  80 W6        29.83S
$$

MDZ021>025-VAZ099-100-250900-
SOUTHERN MARYLAND AND THE DELMARVA PENINSULA

CITY           SKY/WX    TMP DP  RH WIND       PRES   REMARKS
PATUXENT RIVER LGT RAIN  63  59  87 SW15G23   29.63R
BAY BRIDGE APT RAIN      55  55 100 W5        29.64R
LEONARDTOWN    CLOUDY    61  55  82 SW12G20   29.66R
DOVER          LGT RAIN  63  63 100 S16       29.58S
GEORGETOWN     LGT RAIN  65  61  87 SW10      29.62S
EASTON         RAIN      63  63 100 SW8       29.64S
CAMBRIDGE      CLOUDY    63  59  88 CALM      29.60F
SALISBURY      LGT RAIN  66  61  84 SW10      29.62F
OCEAN CITY     CLOUDY    57  55  93 SW5       29.63S
WALLOPS ISLAND LGT RAIN  58  57  97 SW6       29.63F
ACCOMACK*      CLOUDY    64  59  82 SW12      29.65S
$$

NCZ012>017-030>032-250900-
NORTH CENTRAL AND EASTERN NORTH CAROLINA

CITY           SKY/WX    TMP DP  RH WIND       PRES   REMARKS
ROANOKE RAPIDS RAIN      61  61 100 SW8       29.71R
RALEIGH        LGT RAIN  60  56  86 SW9       29.73R
ELIZABETH CITY CLOUDY    69  64  84 SW14      29.72R
AHOSKIE*       CLOUDY    63  61  92 CALM      29.71R
EDENTON*       CLOUDY    64  63  94 SW8       29.73R
CURRITUCK*     CLOUDY    67  64  90 SW7       29.71S
KILL DEVIL HLS CLOUDY    66  66 100 SW13G18   29.72R FOG
MANTEO         CLOUDY    64  64 100 SW18      29.73R
CAPE HATTERAS  CLOUDY    64  64 100 SW17G26   29.76R FOG
TARBORO*       CLOUDY    65  62  88 SW8       29.74R
GOLDSBORO      CLOUDY    66  64  94 VRB6      29.70F
WASHINGTON     CLOUDY    65  63  91 SW7       29.75R
GREENVILLE     CLOUDY    64  63  94 SW8       29.76S
NEW BERN       CLOUDY    67  63  87 SW8       29.75S
WILMINGTON     CLOUDY    64  62  93 SW9       29.76F
$$

VAZ048-250900-
ELSEWHERE

CITY           SKY/WX    TMP DP  RH WIND       PRES   REMARKS
HARRISBURG PA  LGT RAIN  49  44  83 W14       29.63R
BALTIMORE      LGT RAIN  54  50  87 W8        29.65R
ANNAPOLIS      LGT RAIN  57  51  80 NW9       29.63R
ANDREWS AFB    RAIN      55  55 100 NW13      29.66R
PHILADELPHIA   CLOUDY    62  55  77 W22G30    29.58R
HENDERSON NC   LGT RAIN  58  55  88 S3        29.68F
GREENSBORO     CLOUDY    52  45  77 W12       29.73R
ROCKY MOUNT    CLOUDY    65  61  87 S7        29.72R
$$

VAZ100-250900-
MARINE

STATION/POSITION TIME  TEMP    WIND        PRES    WAVE   SWELL
                       AIR SEA DIR/SP/G            HT/PER HT/PER
                 (UTC) (F)     (DEG/KT/KT) (MB)    (FT/S) (FT/S)
CAPE MAY NJ      0800   56 47  210/ 12/ 15 1002.0F
LEWES DE         0800   65 44  240/ 10/ 14 1002.5S
15NM E FENWICK I 0800   51 45              1003.2F   7/ 7
OCEAN-CITY-INLET 0800   54 45  230/  8/ 10 1002.9R
WACHAPREAGUE VA  0800   55 48  220/  6/  9 1003.8F
THOMAS POINT MD  0800   57 42  300/ 16/ 20 1004.8R
GOOSES REEF MD   0800   55     VRB 12/ 14  1001.6F
COVE POINT MD    0800   63     240/ 12/ 14 1002.8F
SOLOMONS ISLAND  0800      44                N/A
BISHOPS HEAD MD  0800   48 44  160/ 12/ 12 1002.6F
PINEY POINT MD   0800          270/ 14/ 16   N/A
POTOMAC MD       0800   55     230/  8/ 12 1002.1F
CAMBRIDGE MD     0800   62 41  180/  5/  9 1002.1F
LEWISETTA VA     0800   63 43  250/ 14/ 17 1003.5R
RAPPAHANNOCK LGT 0800          190/ 15/ 16 1004.8R
STINGRAY PT      0800   54     220/ 10/ 12 1005.0R
YORK RVR RNG VA  0800   59     230/ 15/ 16 1003.6R
YORKTOWN VA      0800   65 45  210/  8/ 12 1004.1F
JAMESTOWN VA     0800   63     240/  8/ 12   N/A
DOMINION TERM VA 0800   57     230/ 11/ 12 1004.8R
KIPTOPEKE VA     0800      50  210/ 10/ 12   N/A
CHES BAY BRIDGE  0800   64 46  200/ 18/ 19 1004.2R
CAPE HENRY VA    0800   67     220/  9/ 15 1003.8R
CHESAPEAKE LGHT  0700   62     220/ 26/ 28 1004.8R
WILLOUBY STN VA  0800   65     210/ 15/ 16 1005.2R
S CRANEY ISL VA  0800          200/  8/ 10 1004.7R
CAPE HENRY BUOY  0800      48                N/A     4/ 8
1ST LANDING BUOY 0800   60     230/ 14/ 16 1004.5F
CAPE CHARLES BUO 0800      47                N/A     4/ 8   2/ 8
64NM E OF VA BCH 0800   61 53  200/ 17/ 19 1005.1F   7/ 8
DUCK PIER NC     0800   65 50  220/ 14/ 18 1005.5R
44100 DUCK FRF   0800      50                N/A     4/ 8   2/11
44056 DUCK FRF   0800      50                N/A     3/ 7
OREGON INLET NC  0800   62 53  210/ 24/ 29 1006.5R
HATTERAS NC      0800   65 56  230/ 14/ 19 1008.2R
DIAMOND SHLS NC  0800   74                 1006.9R   9/ 8
CAPE LOOKOUT NC  0700   65     230/ 12/ 17 1007.7R
$$


USA.gov is the U.S. government's official web portal to all federal, state and local government web resources and services.